| time (UTC) | temp F | wind direction | speed MPH | gust MPH | rain 1hr in | rain 24hr in | rain mn in | humidity % | barometer mb |
| 20260509090514 | 68 | 61 | 6.0 | 9.0 | 0.00 | 0.00 | 0.00 | 68 | 1016.2 |
| 20260509085514 | 67 | 9 | 3.0 | 9.0 | 0.00 | 0.00 | 0.00 | 71 | 1016.2 |
| 20260509085022 | 67 | 43 | 3.0 | 9.0 | 0.00 | 0.00 | 0.00 | 70 | 1016.2 |
| 20260509084514 | 67 | 106 | 3.0 | 10.0 | 0.00 | 0.00 | 0.00 | 70 | 1016.2 |
| 20260509084023 | 67 | 106 | 3.0 | 9.0 | 0.00 | 0.00 | 0.00 | 71 | 1016.2 |
| 20260509083514 | 66 | 106 | 5.0 | 12.0 | 0.00 | 0.00 | 0.00 | 72 | 1016.2 |
| 20260509082022 | 65 | 106 | 4.0 | 10.0 | 0.00 | 0.00 | 0.00 | 73 | 1016.2 |
| 20260509081514 | 65 | 60 | 5.0 | 12.0 | 0.00 | 0.00 | 0.00 | 72 | 1016.1 |
| 20260509080515 | 65 | 87 | 5.0 | 9.0 | 0.00 | 0.00 | 0.00 | 72 | 1016.1 |
| 20260509080014 | 65 | 94 | 6.0 | 9.0 | 0.00 | 0.00 | 0.00 | 73 | 1016.1 |
| 20260509074022 | 64 | 115 | 5.0 | 12.0 | 0.00 | 0.00 | 0.00 | 72 | 1016.0 |
| 20260509073514 | 64 | 61 | 5.0 | 10.0 | 0.00 | 0.00 | 0.00 | 72 | 1016.0 |
| 20260509073022 | 64 | 119 | 5.0 | 9.0 | 0.00 | 0.00 | 0.00 | 72 | 1015.9 |
| 20260509072514 | 64 | 95 | 3.0 | 8.0 | 0.00 | 0.00 | 0.00 | 72 | 1015.9 |
| 20260509071514 | 63 | 105 | 5.0 | 10.0 | 0.00 | 0.00 | 0.00 | 75 | 1015.9 |
| 20260509071022 | 63 | 108 | 6.0 | 10.0 | 0.00 | 0.00 | 0.00 | 74 | 1015.8 |
| 20260509065513 | 62 | 112 | 3.0 | 8.0 | 0.00 | 0.00 | 0.00 | 79 | 1015.9 |
| 20260509065022 | 62 | 166 | 4.0 | 9.0 | 0.00 | 0.00 | 0.00 | 77 | 1015.9 |
| 20260509063021 | 62 | 128 | 2.0 | 7.0 | 0.00 | 0.00 | 0.00 | 80 | 1015.6 |
| 20260509062021 | 61 | 174 | 4.0 | 6.0 | 0.00 | 0.00 | 0.00 | 81 | 1015.7 |
| 20260509061514 | 61 | 147 | 2.0 | 6.0 | 0.00 | 0.00 | 0.00 | 81 | 1015.7 |
| 20260509061021 | 61 | 87 | 3.0 | 7.0 | 0.00 | 0.00 | 0.00 | 81 | 1015.5 |
| 20260509060014 | 61 | 91 | 1.0 | 3.0 | 0.00 | 0.00 | 0.00 | 81 | 1015.6 |
| 20260509055513 | 61 | 107 | 1.0 | 3.0 | 0.00 | 0.00 | 0.00 | 81 | 1015.7 |
| 20260509054023 | 61 | 158 | 0.0 | 1.0 | 0.00 | 0.00 | 0.00 | 80 | 1015.6 |
| 20260509053021 | 60 | 189 | 2.0 | 3.0 | 0.00 | 0.00 | 0.00 | 83 | 1015.7 |
| 20260509052513 | 60 | 185 | 0.0 | 2.0 | 0.00 | 0.00 | 0.00 | 83 | 1015.7 |
| 20260509050014 | 59 | 151 | 1.0 | 2.0 | 0.00 | 0.00 | 0.00 | 84 | 1015.4 |
| 20260509044514 | 58 | 102 | 2.0 | 3.0 | 0.00 | 0.00 | 0.00 | 85 | 1015.4 |
| 20260509042021 | 55 | 39 | 1.0 | 2.0 | 0.00 | 0.00 | 0.00 | 87 | 1015.1 |
| 20260509041514 | 55 | 39 | 0.0 | 1.0 | 0.00 | 0.00 | 0.00 | 88 | 1015.0 |
| 20260509041021 | 55 | 37 | 1.0 | 2.0 | 0.00 | 0.00 | 0.00 | 88 | 1015.0 |
| 20260509040015 | 55 | 17 | 2.0 | 3.0 | 0.00 | 0.00 | 0.00 | 89 | 1014.9 |
| 20260509033513 | 55 | 359 | 1.0 | 2.0 | 0.00 | 0.00 | 0.00 | 88 | 1014.9 |
| 20260509033023 | 55 | 359 | 0.0 | 1.0 | 0.00 | 0.00 | 0.00 | 88 | 1014.9 |
| 20260509032020 | 55 | 335 | 1.0 | 2.0 | 0.00 | 0.00 | 0.00 | 88 | 1014.8 |
| 20260509031515 | 55 | 318 | 1.0 | 3.0 | 0.00 | 0.00 | 0.00 | 88 | 1014.7 |
| 20260509030513 | 55 | 359 | 1.0 | 2.0 | 0.00 | 0.00 | 0.00 | 87 | 1014.7 |
| 20260509030013 | 55 | 314 | 2.0 | 3.0 | 0.00 | 0.00 | 0.00 | 87 | 1014.7 |
| 20260509025513 | 55 | 359 | 2.0 | 3.0 | 0.00 | 0.00 | 0.00 | 88 | 1014.7 |
| 20260509025020 | 55 | 359 | 1.0 | 3.0 | 0.00 | 0.00 | 0.00 | 88 | 1014.7 |
| 20260509024513 | 55 | 289 | 1.0 | 2.0 | 0.00 | 0.00 | 0.00 | 88 | 1014.6 |
| 20260509022020 | 55 | 359 | 0.0 | 2.0 | 0.00 | 0.00 | 0.00 | 87 | 1014.6 |
| 20260509021513 | 55 | 359 | 1.0 | 2.0 | 0.00 | 0.00 | 0.00 | 87 | 1014.6 |
| 20260509021020 | 56 | 287 | 1.0 | 2.0 | 0.00 | 0.00 | 0.00 | 86 | 1014.6 |
| 20260509020514 | 56 | 359 | 1.0 | 1.0 | 0.00 | 0.00 | 0.00 | 86 | 1014.7 |
| 20260509015513 | 56 | 359 | 1.0 | 1.0 | 0.00 | 0.00 | 0.00 | 87 | 1014.7 |
| 20260509014020 | 56 | 322 | 1.0 | 2.0 | 0.00 | 0.00 | 0.00 | 86 | 1014.6 |
| 20260509013020 | 56 | 359 | 1.0 | 2.0 | 0.00 | 0.00 | 0.00 | 87 | 1014.5 |
| 20260509012513 | 56 | 287 | 0.0 | 1.0 | 0.00 | 0.00 | 0.00 | 87 | 1014.5 |
| 20260509011020 | 57 | 359 | 0.0 | 1.0 | 0.00 | 0.00 | 0.00 | 87 | 1014.5 |
| 20260509010513 | 57 | 359 | 0.0 | 0.0 | 0.00 | 0.00 | 0.00 | 87 | 1014.5 |
| 20260509010013 | 56 | 359 | 0.0 | 0.0 | 0.00 | 0.00 | 0.00 | 87 | 1014.5 |
| 20260509004019 | 56 | 359 | 0.0 | 1.0 | 0.00 | 0.00 | 0.00 | 87 | 1014.6 |
| 20260509003019 | 56 | 287 | 0.0 | 1.0 | 0.00 | 0.00 | 0.00 | 87 | 1014.6 |
| 20260509002514 | 56 | 288 | 0.0 | 1.0 | 0.00 | 0.00 | 0.00 | 86 | 1014.7 |
| 20260509001513 | 57 | 287 | 1.0 | 2.0 | 0.00 | 0.00 | 0.00 | 86 | 1014.7 |
| 20260509001019 | 57 | 289 | 0.0 | 1.0 | 0.00 | 0.00 | 0.00 | 87 | 1014.8 |
| 20260508235513 | 56 | 287 | 0.0 | 1.0 | 0.00 | 0.00 | 0.00 | 86 | 1014.8 |
| 20260508235020 | 56 | 287 | 0.0 | 1.0 | 0.00 | 0.00 | 0.00 | 86 | 1014.8 |
| 20260508234020 | 57 | 359 | 0.0 | 1.0 | 0.00 | 0.00 | 0.00 | 85 | 1014.8 |
| 20260508233020 | 58 | 359 | 1.0 | 1.0 | 0.00 | 0.00 | 0.00 | 83 | 1014.7 |
| 20260508232513 | 58 | 359 | 0.0 | 1.0 | 0.00 | 0.00 | 0.00 | 84 | 1014.8 |
| 20260508232019 | 58 | 287 | 0.0 | 0.0 | 0.00 | 0.00 | 0.00 | 85 | 1014.8 |
| 20260508231513 | 57 | 287 | 0.0 | 1.0 | 0.00 | 0.00 | 0.00 | 86 | 1014.8 |
| 20260508231019 | 57 | 287 | 0.0 | 1.0 | 0.00 | 0.00 | 0.00 | 86 | 1014.8 |
| 20260508230513 | 57 | 289 | 0.0 | 1.0 | 0.00 | 0.00 | 0.00 | 85 | 1014.8 |
| 20260508225019 | 57 | 286 | 1.0 | 2.0 | 0.00 | 0.00 | 0.00 | 83 | 1014.8 |
| 20260508224019 | 58 | 287 | 1.0 | 2.0 | 0.00 | 0.00 | 0.00 | 84 | 1014.8 |
| 20260508223513 | 58 | 289 | 1.0 | 2.0 | 0.00 | 0.00 | 0.00 | 84 | 1014.8 |
| 20260508222513 | 58 | 359 | 1.0 | 3.0 | 0.00 | 0.00 | 0.00 | 83 | 1014.7 |
| 20260508222019 | 58 | 287 | 2.0 | 3.0 | 0.00 | 0.00 | 0.00 | 83 | 1014.9 |
| 20260508220014 | 60 | 201 | 1.0 | 3.0 | 0.00 | 0.00 | 0.00 | 84 | 1014.6 |
| 20260508215020 | 60 | 89 | 0.0 | 1.0 | 0.00 | 0.00 | 0.00 | 83 | 1014.5 |
| 20260508214021 | 60 | 89 | 1.0 | 2.0 | 0.00 | 0.00 | 0.00 | 82 | 1014.3 |
| 20260508213513 | 60 | 143 | 0.0 | 2.0 | 0.00 | 0.00 | 0.00 | 83 | 1014.4 |
| 20260508211020 | 61 | 45 | 1.0 | 2.0 | 0.00 | 0.00 | 0.00 | 81 | 1014.4 |
| 20260508204020 | 61 | 359 | 0.0 | 1.0 | 0.00 | 0.00 | 0.00 | 79 | 1014.4 |
| 20260508203019 | 62 | 27 | 0.0 | 2.0 | 0.00 | 0.00 | 0.00 | 79 | 1014.4 |
| 20260508201020 | 63 | 308 | 0.0 | 1.0 | 0.00 | 0.00 | 0.00 | 75 | 1014.5 |
| 20260508200512 | 63 | 308 | 0.0 | 1.0 | 0.00 | 0.00 | 0.00 | 75 | 1014.4 |
| 20260508200013 | 63 | 359 | 1.0 | 3.0 | 0.00 | 0.00 | 0.00 | 73 | 1014.3 |
| 20260508195512 | 63 | 359 | 1.0 | 3.0 | 0.00 | 0.00 | 0.00 | 72 | 1014.3 |
| 20260508195019 | 64 | 261 | 1.0 | 3.0 | 0.00 | 0.00 | 0.00 | 73 | 1014.2 |
| 20260508194020 | 64 | 56 | 1.0 | 2.0 | 0.00 | 0.00 | 0.00 | 71 | 1014.0 |
| 20260508192513 | 64 | 273 | 2.0 | 3.0 | 0.00 | 0.00 | 0.00 | 70 | 1013.8 |
| 20260508192019 | 64 | 310 | 3.0 | 3.0 | 0.00 | 0.00 | 0.00 | 69 | 1013.7 |
| 20260508184019 | 66 | 18 | 3.0 | 3.0 | 0.00 | 0.00 | 0.00 | 71 | 1013.2 |
| 20260508183020 | 66 | 300 | 2.0 | 3.0 | 0.00 | 0.00 | 0.00 | 72 | 1013.0 |
| 20260508180513 | 67 | 245 | 3.0 | 7.0 | 0.00 | 0.00 | 0.00 | 68 | 1012.6 |
| 20260508175513 | 68 | 262 | 6.0 | 12.0 | 0.00 | 0.00 | 0.00 | 68 | 1012.5 |
| 20260508174021 | 69 | 156 | 5.0 | 9.0 | 0.00 | 0.00 | 0.00 | 67 | 1012.5 |
| 20260508173514 | 69 | 271 | 6.0 | 12.0 | 0.00 | 0.00 | 0.00 | 68 | 1012.5 |
| 20260508172021 | 70 | 244 | 6.0 | 10.0 | 0.00 | 0.00 | 0.00 | 66 | 1012.3 |
| 20260508171514 | 70 | 239 | 8.0 | 15.0 | 0.00 | 0.00 | 0.00 | 65 | 1012.4 |
| 20260508170512 | 71 | 294 | 5.0 | 13.0 | 0.00 | 0.00 | 0.00 | 65 | 1012.2 |
| 20260508165513 | 71 | 234 | 5.0 | 10.0 | 0.00 | 0.00 | 0.00 | 64 | 1012.0 |
| 20260508165020 | 71 | 168 | 5.0 | 12.0 | 0.00 | 0.00 | 0.00 | 64 | 1012.0 |
| 20260508164021 | 72 | 202 | 3.0 | 12.0 | 0.00 | 0.00 | 0.00 | 63 | 1012.0 |
| 20260508163020 | 72 | 127 | 4.0 | 8.0 | 0.00 | 0.00 | 0.00 | 63 | 1012.0 |
| 20260508161020 | 72 | 236 | 3.0 | 10.0 | 0.00 | 0.00 | 0.00 | 62 | 1011.8 |
| 20260508160514 | 72 | 213 | 5.0 | 12.0 | 0.00 | 0.00 | 0.00 | 61 | 1012.0 |
| 20260508155514 | 73 | 253 | 6.0 | 12.0 | 0.00 | 0.00 | 0.00 | 58 | 1011.9 |
| 20260508154512 | 73 | 218 | 4.0 | 10.0 | 0.00 | 0.00 | 0.00 | 62 | 1012.1 |
| 20260508153021 | 73 | 195 | 8.0 | 13.0 | 0.00 | 0.00 | 0.00 | 61 | 1012.1 |
| 20260508151512 | 73 | 235 | 6.0 | 15.0 | 0.00 | 0.00 | 0.00 | 62 | 1011.9 |
| 20260508150013 | 74 | 151 | 7.0 | 13.0 | 0.00 | 0.00 | 0.00 | 60 | 1011.9 |
| 20260508145512 | 73 | 229 | 8.0 | 15.0 | 0.00 | 0.00 | 0.00 | 62 | 1011.9 |
| 20260508144513 | 73 | 231 | 9.0 | 16.0 | 0.00 | 0.00 | 0.00 | 62 | 1011.8 |
| 20260508143512 | 73 | 239 | 6.0 | 12.0 | 0.00 | 0.00 | 0.00 | 61 | 1011.8 |
| 20260508143020 | 74 | 243 | 5.0 | 13.0 | 0.00 | 0.00 | 0.00 | 62 | 1011.9 |
| 20260508142020 | 73 | 231 | 8.0 | 15.0 | 0.00 | 0.00 | 0.00 | 62 | 1011.8 |
| 20260508141512 | 73 | 254 | 9.0 | 15.0 | 0.00 | 0.00 | 0.00 | 62 | 1011.9 |
| 20260508141020 | 74 | 227 | 9.0 | 14.0 | 0.00 | 0.00 | 0.00 | 62 | 1012.0 |
| 20260508140513 | 74 | 229 | 7.0 | 13.0 | 0.00 | 0.00 | 0.00 | 62 | 1012.0 |
| 20260508135512 | 75 | 237 | 9.0 | 15.0 | 0.00 | 0.00 | 0.00 | 60 | 1012.0 |
| 20260508134513 | 74 | 261 | 5.0 | 17.0 | 0.00 | 0.00 | 0.00 | 61 | 1012.0 |
| 20260508134020 | 74 | 252 | 9.0 | 15.0 | 0.00 | 0.00 | 0.00 | 60 | 1012.0 |
| 20260508132512 | 74 | 239 | 10.0 | 22.0 | 0.00 | 0.00 | 0.00 | 60 | 1012.0 |
| 20260508130512 | 74 | 253 | 7.0 | 12.0 | 0.00 | 0.00 | 0.00 | 60 | 1011.9 |
| 20260508130013 | 75 | 267 | 7.0 | 13.0 | 0.00 | 0.00 | 0.00 | 54 | 1012.0 |
| 20260508125512 | 76 | 265 | 10.0 | 14.0 | 0.00 | 0.00 | 0.00 | 53 | 1012.1 |
| 20260508124512 | 75 | 259 | 7.0 | 14.0 | 0.00 | 0.00 | 0.00 | 55 | 1012.1 |
| 20260508123020 | 73 | 268 | 5.0 | 12.0 | 0.00 | 0.00 | 0.00 | 58 | 1012.2 |
| 20260508122020 | 73 | 272 | 3.0 | 12.0 | 0.00 | 0.00 | 0.00 | 59 | 1012.2 |
| 20260508121512 | 73 | 245 | 5.0 | 10.0 | 0.00 | 0.00 | 0.00 | 59 | 1012.3 |
| 20260508121020 | 73 | 252 | 5.0 | 13.0 | 0.00 | 0.00 | 0.00 | 56 | 1012.3 |
| 20260508120512 | 74 | 275 | 6.0 | 12.0 | 0.00 | 0.00 | 0.00 | 56 | 1012.3 |
| 20260508115020 | 73 | 253 | 6.0 | 12.0 | 0.00 | 0.00 | 0.00 | 59 | 1012.4 |
| 20260508113512 | 73 | 222 | 5.0 | 13.0 | 0.00 | 0.00 | 0.00 | 58 | 1012.4 |
| 20260508110512 | 72 | 289 | 5.0 | 12.0 | 0.00 | 0.00 | 0.00 | 58 | 1012.3 |
| 20260508110015 | 72 | 258 | 6.0 | 15.0 | 0.00 | 0.00 | 0.00 | 58 | 1012.3 |
| 20260508105020 | 71 | 293 | 9.0 | 14.0 | 0.00 | 0.00 | 0.00 | 59 | 1012.3 |
| 20260508104512 | 72 | 236 | 4.0 | 14.0 | 0.00 | 0.00 | 0.00 | 59 | 1012.4 |
| 20260508102019 | 71 | 336 | 10.0 | 13.0 | 0.00 | 0.00 | 0.00 | 60 | 1012.7 |
| 20260508101512 | 71 | 330 | 9.0 | 17.0 | 0.00 | 0.00 | 0.00 | 58 | 1012.7 |
| 20260508101020 | 71 | 283 | 9.0 | 20.0 | 0.00 | 0.00 | 0.00 | 58 | 1012.6 |
| 20260508100512 | 71 | 278 | 10.0 | 16.0 | 0.00 | 0.00 | 0.00 | 59 | 1012.6 |
| 20260508094020 | 70 | 277 | 5.0 | 12.0 | 0.00 | 0.00 | 0.00 | 62 | 1012.5 |
| 20260508093513 | 70 | 299 | 7.0 | 13.0 | 0.00 | 0.00 | 0.00 | 63 | 1012.5 |
| 20260508092512 | 69 | 268 | 7.0 | 14.0 | 0.00 | 0.00 | 0.00 | 64 | 1012.4 |
| 20260508092021 | 69 | 271 | 7.0 | 13.0 | 0.00 | 0.00 | 0.00 | 67 | 1012.4 |